GW7041 Weather Reports


Display with metric or nautical units.
time (UTC)temp
F
wind
direction
speed
MPH
gust
MPH
rain 1hr
in
rain 24hr
in
rain mn
in
humidity
%
barometer
mb
20260505124424 55 25 7.0 10.0 0.00 0.00 0.35 89 1009.1
20260505123925 55 52 5.0 7.0 0.00 0.00 0.35 90 1009.1
20260505123424 55 71 3.0 5.0 0.00 0.00 0.35 90 1008.8
20260505122924 55 355 3.0 6.0 0.00 0.00 0.35 91 1008.8
20260505122425 55 24 2.0 4.0 0.00 0.00 0.35 91 1008.8
20260505121924 55 103 0.0 5.0 0.00 0.00 0.35 91 1008.8
20260505121424 55 0 2.0 4.0 0.00 0.00 0.35 91 1009.1
20260505120925 55 168 2.0 4.0 0.00 0.00 0.35 92 1008.8
20260505120424 55 20 2.0 5.0 0.00 0.00 0.35 91 1008.5
20260505115924 55 64 3.0 5.0 0.00 0.00 0.35 91 1008.1
20260505115424 55 20 2.0 7.0 0.00 0.00 0.35 90 1008.1
20260505114924 56 47 3.0 7.0 0.00 0.00 0.35 90 1007.8
20260505114422 56 58 3.0 5.0 0.00 0.00 0.35 90 1008.1
20260505113925 56 73 2.0 6.0 0.00 0.00 0.35 90 1007.8
20260505113422 57 33 3.0 4.0 0.00 0.00 0.35 91 1008.1
20260505112925 57 337 1.0 6.0 0.00 0.00 0.35 91 1008.1
20260505112422 57 66 2.0 5.0 0.00 0.00 0.35 91 1008.1
20260505111924 58 38 3.0 5.0 0.00 0.00 0.35 92 1008.1
20260505111422 58 322 3.0 4.0 0.00 0.00 0.35 92 1008.1
20260505110925 58 193 3.0 4.0 0.00 0.00 0.35 92 1007.8
20260505110424 58 6 4.0 4.0 0.00 0.00 0.35 92 1007.8
20260505101922 61 295 1.0 4.0 0.02 0.00 0.35 91 1007.8
20260505101423 61 318 7.0 7.0 0.02 0.00 0.35 92 1007.8
20260505100925 61 31 2.0 5.0 0.02 0.00 0.35 91 1007.5
20260505100422 61 70 1.0 3.0 0.02 0.00 0.35 91 1007.1
20260505095922 61 39 0.0 3.0 0.02 0.00 0.35 91 1006.8
20260505095424 62 82 2.0 5.0 0.02 0.00 0.35 90 1007.5
20260505094922 62 63 0.0 7.0 0.02 0.00 0.35 88 1007.5
20260505094424 62 336 8.0 11.0 0.02 0.00 0.35 88 1007.8
20260505093922 62 323 7.0 10.0 0.01 0.00 0.35 89 1007.5
20260505093423 62 8 2.0 12.0 0.00 0.00 0.34 89 1008.1
20260505092922 62 346 13.0 16.0 0.00 0.00 0.34 87 1007.8
20260505092423 61 338 4.0 6.0 0.00 0.00 0.33 88 1007.1
20260505091922 62 285 3.0 3.0 0.00 0.00 0.33 88 1006.4
20260505091423 62 208 2.0 4.0 0.00 0.00 0.33 87 1006.1
20260505090922 62 189 3.0 3.0 0.00 0.00 0.33 87 1006.1
20260505090422 62 203 3.0 3.0 0.00 0.00 0.33 88 1006.1
20260505085922 61 150 0.0 4.0 0.01 0.00 0.33 89 1005.4
20260505085423 61 241 1.0 5.0 0.01 0.00 0.33 90 1005.8
20260505084922 62 239 0.0 3.0 0.04 0.00 0.33 91 1005.1
20260505084422 62 196 1.0 2.0 0.07 0.00 0.33 91 1005.1
20260505083925 62 295 5.0 5.0 0.10 0.00 0.33 91 1005.1
20260505083422 62 285 4.0 6.0 0.14 0.00 0.33 92 1004.7
20260505082924 62 159 5.0 11.0 0.17 0.00 0.33 92 1004.1
20260505082422 62 160 6.0 16.0 0.20 0.00 0.33 93 1004.1
20260505081922 61 180 10.0 16.0 0.23 0.00 0.33 93 1004.4
20260505081422 61 165 21.0 22.0 0.25 0.00 0.33 94 1004.7
20260505080923 61 182 8.0 13.0 0.26 0.00 0.33 93 1005.8
20260505080422 62 167 8.0 16.0 0.27 0.00 0.33 93 1006.1
20260505075923 62 170 8.0 13.0 0.28 0.00 0.33 93 1006.4
20260505075422 62 150 6.0 9.0 0.28 0.00 0.32 93 1007.1
20260505074922 62 268 4.0 6.0 0.26 0.00 0.32 92 1007.8
20260505074422 62 271 3.0 9.0 0.23 0.00 0.29 92 1007.8
20260505073923 62 264 8.0 13.0 0.20 0.00 0.25 91 1008.1
20260505073423 62 252 10.0 19.0 0.17 0.00 0.22 91 1007.8
20260505072922 62 232 8.0 14.0 0.13 0.00 0.18 89 1007.8
20260505072423 62 246 9.0 13.0 0.11 0.00 0.15 88 1007.5
20260505071922 63 197 4.0 15.0 0.09 0.00 0.11 87 1007.5
20260505071423 63 185 8.0 13.0 0.06 0.00 0.09 85 1007.5
20260505070922 64 227 5.0 9.0 0.05 0.00 0.07 83 1007.5
20260505070422 64 186 13.0 14.0 0.03 0.00 0.05 81 1007.5
20260505065923 65 199 9.0 16.0 0.02 0.00 0.04 79 1007.1
20260505065422 66 178 8.0 12.0 0.01 0.00 0.02 75 1006.8
20260505064923 66 236 6.0 14.0 0.01 0.00 0.01 73 1006.8
20260505064422 66 184 5.0 9.0 0.00 0.00 0.01 72 1006.4
20260505063922 67 202 8.0 9.0 0.00 0.00 0.00 70 1006.1
20260505063422 67 172 5.0 10.0 0.00 0.00 0.00 70 1006.1
20260505062923 67 123 2.0 5.0 0.00 0.00 0.00 69 1005.8
20260505062422 67 85 2.0 6.0 0.00 0.00 0.00 69 1006.1
20260505061922 67 167 7.0 8.0 0.00 0.00 0.00 68 1006.1
20260505061424 67 218 4.0 8.0 0.00 0.00 0.00 69 1006.1
20260505060922 67 179 4.0 10.0 0.00 0.00 0.00 69 1006.1
20260505060423 67 171 6.0 10.0 0.00 0.00 0.00 69 1006.4
20260505055923 66 165 4.0 6.0 0.00 0.00 0.00 69 1006.1
20260505055422 66 166 6.0 7.0 0.00 0.00 0.00 69 1006.1
20260505054922 66 182 6.0 7.0 0.00 0.00 0.00 69 1006.1
20260505054422 67 161 4.0 5.0 0.00 0.00 0.00 69 1006.1
20260505053922 67 156 5.0 9.0 0.00 0.00 0.00 69 1006.1
20260505053423 67 173 5.0 7.0 0.00 0.00 0.00 69 1006.4
20260505052922 66 150 8.0 10.0 0.00 0.00 0.00 69 1006.4
20260505052422 66 143 2.0 7.0 0.00 0.00 0.00 69 1006.8
20260505051923 66 149 4.0 9.0 0.00 0.00 0.00 70 1006.4
20260505051422 66 169 4.0 7.0 0.00 0.00 0.00 69 1006.1
20260505050923 66 177 6.0 7.0 0.00 0.00 0.00 69 1006.1
20260505050423 67 167 5.0 8.0 0.00 0.00 0.00 69 1006.1
20260505041422 67 164 4.0 7.0 0.00 0.00 0.00 68 1006.8
20260505040923 67 159 3.0 6.0 0.00 0.00 0.00 67 1006.8
20260505040422 67 147 2.0 7.0 0.00 0.00 0.00 67 1006.8
20260505035923 67 174 3.0 7.0 0.00 0.00 0.00 67 1006.8
20260505035422 67 176 4.0 5.0 0.00 0.00 0.00 67 1006.8
20260505034923 67 167 5.0 7.0 0.00 0.00 0.00 67 1006.8
20260505034422 67 182 4.0 6.0 0.00 0.00 0.00 68 1007.1
20260505033922 67 181 4.0 5.0 0.00 0.00 0.00 68 1007.1
20260505033422 67 166 5.0 6.0 0.00 0.00 0.00 68 1007.1
20260505032922 68 182 2.0 4.0 0.00 0.00 0.00 68 1007.1
20260505032422 68 183 2.0 4.0 0.00 0.00 0.00 67 1007.5
20260505031923 68 185 3.0 3.0 0.00 0.00 0.00 67 1007.1
20260505031422 68 166 3.0 3.0 0.00 0.00 0.00 66 1007.1
20260505030922 69 164 2.0 3.0 0.00 0.00 0.00 65 1007.1
20260505030422 69 177 3.0 3.0 0.00 0.00 0.00 64 1007.5
20260505025921 69 176 2.0 5.0 0.00 0.00 0.00 64 1007.1
20260505025422 69 187 0.0 4.0 0.00 0.00 0.00 63 1007.1
20260505024922 70 182 3.0 5.0 0.00 0.00 0.00 63 1007.1
20260505024423 70 161 4.0 5.0 0.00 0.00 0.00 63 1006.8
20260505023922 70 157 0.0 4.0 0.00 0.00 0.00 63 1006.8
20260505023423 70 208 4.0 6.0 0.00 0.00 0.00 62 1006.8
20260505022922 70 211 3.0 7.0 0.00 0.00 0.00 62 1006.8
20260505022422 70 247 1.0 7.0 0.00 0.00 0.00 62 1006.4
20260505021922 71 223 2.0 6.0 0.00 0.00 0.00 62 1006.8
20260505021422 71 197 5.0 6.0 0.00 0.00 0.00 61 1006.4
20260505020922 71 203 3.0 7.0 0.00 0.00 0.00 61 1006.4
20260505020422 71 232 6.0 10.0 0.00 0.00 0.00 61 1006.4
20260505015922 71 176 4.0 8.0 0.00 0.00 0.00 61 1006.4
20260505015423 71 196 2.0 6.0 0.00 0.00 0.00 61 1006.1
20260505014922 71 212 5.0 9.0 0.00 0.00 0.00 60 1006.1
20260505014423 72 235 5.0 7.0 0.00 0.00 0.00 60 1006.1
20260505013922 72 210 4.0 6.0 0.00 0.00 0.00 60 1006.4
20260505013422 72 190 2.0 6.0 0.00 0.00 0.00 59 1005.8
20260505012923 72 210 3.0 5.0 0.00 0.00 0.00 59 1006.1
20260505012423 72 209 0.0 6.0 0.00 0.00 0.00 59 1005.8
20260505011922 72 205 5.0 8.0 0.00 0.00 0.00 58 1005.8
20260505011422 72 213 8.0 11.0 0.00 0.00 0.00 58 1005.8
20260505010922 72 183 5.0 9.0 0.00 0.00 0.00 58 1005.4
20260505010422 73 181 3.0 6.0 0.00 0.00 0.00 58 1005.8
20260505005922 73 166 3.0 5.0 0.00 0.00 0.00 58 1005.8
20260505005422 73 173 1.0 5.0 0.00 0.00 0.00 58 1005.4
20260505004923 73 181 3.0 4.0 0.00 0.00 0.00 58 1005.4
20260505004422 73 212 4.0 6.0 0.00 0.00 0.00 57 1005.4
20260505003922 73 203 3.0 5.0 0.00 0.00 0.00 57 1005.1
20260505003423 74 189 4.0 4.0 0.00 0.00 0.00 56 1005.1
20260505002922 74 160 3.0 6.0 0.00 0.00 0.00 56 1005.1
20260505002422 74 197 1.0 4.0 0.00 0.00 0.00 56 1005.1
20260505001922 74 217 2.0 6.0 0.00 0.00 0.00 55 1005.1
20260505001422 74 180 3.0 6.0 0.00 0.00 0.00 55 1005.1
20260505000923 74 226 4.0 9.0 0.00 0.00 0.00 55 1005.1
20260505000422 75 215 5.0 7.0 0.00 0.00 0.00 54 1004.7
20260504235922 75 149 3.0 5.0 0.00 0.00 0.00 54 1005.1
20260504235422 75 149 2.0 5.0 0.00 0.00 0.00 52 1004.7
20260504234922 75 170 3.0 6.0 0.00 0.00 0.00 52 1005.1
20260504234422 76 221 3.0 9.0 0.00 0.00 0.00 51 1005.1
20260504233922 76 175 4.0 7.0 0.00 0.00 0.00 50 1004.7
20260504233003 77 213 6.0 8.0 0.00 0.00 0.00 49 1004.7
20260504232422 77 222 8.0 12.0 0.00 0.00 0.00 48 1004.7
20260504231923 77 183 6.0 9.0 0.00 0.00 0.00 49 1005.1
20260504231423 78 197 8.0 11.0 0.00 0.00 0.00 48 1004.4
20260504230923 78 204 7.0 9.0 0.00 0.00 0.00 48 1004.7
20260504230422 78 209 2.0 8.0 0.00 0.00 0.00 48 1004.7
20260504225923 78 180 7.0 13.0 0.00 0.00 0.00 46 1004.4
20260504225422 78 154 5.0 7.0 0.00 0.00 0.00 47 1004.4
20260504224922 78 195 9.0 12.0 0.00 0.00 0.00 47 1004.4
20260504224422 78 209 9.0 10.0 0.00 0.00 0.00 48 1004.7
20260504223922 79 181 5.0 14.0 0.00 0.00 0.00 47 1004.4
20260504223422 78 202 9.0 14.0 0.00 0.00 0.00 46 1004.4
20260504222923 78 205 10.0 11.0 0.00 0.00 0.00 46 1004.4
20260504222422 78 213 5.0 11.0 0.00 0.00 0.00 45 1004.7
20260504221923 79 213 5.0 14.0 0.00 0.00 0.00 46 1004.4
20260504221422 79 247 5.0 13.0 0.00 0.00 0.00 47 1004.4
20260504220922 78 214 11.0 16.0 0.00 0.00 0.00 45 1004.7
20260504220423 78 189 5.0 20.0 0.00 0.00 0.00 46 1004.7
20260504215923 78 232 5.0 14.0 0.00 0.00 0.00 46 1004.7
20260504215425 78 266 7.0 11.0 0.00 0.00 0.00 46 1005.1
20260504214923 78 171 10.0 15.0 0.00 0.00 0.00 47 1004.7
20260504214422 78 204 3.0 13.0 0.00 0.00 0.00 46 1004.4
20260504213923 79 233 6.0 16.0 0.00 0.00 0.00 47 1004.7
20260504213422 79 204 8.0 9.0 0.00 0.00 0.00 49 1004.7
20260504212923 78 176 6.0 9.0 0.00 0.00 0.00 49 1004.7
20260504212422 78 181 7.0 14.0 0.00 0.00 0.00 49 1004.4
20260504211922 78 163 8.0 14.0 0.00 0.00 0.00 49 1004.7
20260504211423 79 149 7.0 17.0 0.00 0.00 0.00 49 1004.7
20260504210922 79 201 6.0 8.0 0.00 0.00 0.00 50 1004.7
20260504210422 78 242 7.0 8.0 0.00 0.00 0.00 51 1005.1
20260504205922 78 217 7.0 12.0 0.00 0.00 0.00 49 1005.1
20260504205422 78 197 9.0 13.0 0.00 0.00 0.00 51 1005.1
20260504204922 78 258 6.0 16.0 0.00 0.00 0.00 48 1005.4
20260504204422 78 237 10.0 14.0 0.00 0.00 0.00 50 1005.1
20260504203922 78 161 6.0 11.0 0.00 0.00 0.00 50 1005.1
20260504203422 78 228 13.0 15.0 0.00 0.00 0.00 48 1005.1
20260504202924 78 171 8.0 13.0 0.00 0.00 0.00 48 1005.4
20260504202422 78 233 10.0 15.0 0.00 0.00 0.00 47 1005.4
20260504201922 79 158 7.0 16.0 0.00 0.00 0.00 48 1005.1
20260504201423 79 196 8.0 16.0 0.00 0.00 0.00 48 1005.8
20260504200923 78 202 9.0 13.0 0.00 0.00 0.00 48 1005.8
20260504200422 78 172 3.0 12.0 0.00 0.00 0.00 48 1006.1
20260504195922 78 138 5.0 14.0 0.00 0.00 0.00 49 1005.8
20260504195423 79 152 12.0 17.0 0.00 0.00 0.00 47 1005.8
20260504194923 79 202 5.0 15.0 0.00 0.00 0.00 48 1005.8
20260504194423 78 177 6.0 11.0 0.00 0.00 0.00 48 1005.8
20260504193922 78 222 8.0 11.0 0.00 0.00 0.00 49 1005.8
20260504193422 78 196 10.0 12.0 0.00 0.00 0.00 48 1006.1
20260504192923 77 157 4.0 13.0 0.00 0.00 0.00 48 1006.4
20260504192424 78 177 12.0 18.0 0.00 0.00 0.00 48 1006.1
20260504191923 78 251 7.0 15.0 0.00 0.00 0.00 47 1005.8
20260504191423 78 198 10.0 22.0 0.00 0.00 0.00 48 1006.1
20260504190922 78 218 7.0 13.0 0.00 0.00 0.00 49 1006.1
20260504190422 77 188 12.0 12.0 0.00 0.00 0.00 48 1006.1
20260504185923 77 196 11.0 13.0 0.00 0.00 0.00 48 1006.1
20260504185422 77 209 9.0 15.0 0.00 0.00 0.00 47 1006.1
20260504184922 77 159 5.0 14.0 0.00 0.00 0.00 48 1006.8
20260504184422 77 210 6.0 17.0 0.00 0.00 0.00 47 1006.4
20260504183925 77 148 7.0 15.0 0.00 0.00 0.00 48 1006.4
20260504183422 77 160 10.0 14.0 0.00 0.00 0.00 48 1006.4
20260504182922 77 184 6.0 20.0 0.00 0.00 0.00 49 1006.1
20260504182423 77 244 7.0 17.0 0.00 0.00 0.00 48 1006.4
20260504181922 77 163 10.0 14.0 0.00 0.00 0.00 50 1006.4
20260504181422 77 179 5.0 15.0 0.00 0.00 0.00 49 1006.8
20260504180923 77 192 5.0 9.0 0.00 0.00 0.00 50 1006.4
20260504180423 76 265 9.0 13.0 0.00 0.00 0.00 49 1006.4
20260504175923 76 129 5.0 12.0 0.00 0.00 0.00 48 1006.4
20260504175422 76 217 5.0 16.0 0.00 0.00 0.00 48 1006.8
20260504174923 76 228 11.0 14.0 0.00 0.00 0.00 48 1006.8
20260504174422 76 165 5.0 16.0 0.00 0.00 0.00 49 1006.8
20260504173922 76 223 9.0 13.0 0.00 0.00 0.00 49 1006.8
20260504173422 76 196 9.0 18.0 0.00 0.00 0.00 49 1006.4
20260504172923 75 204 5.0 15.0 0.00 0.00 0.00 49 1006.8
20260504172423 75 255 15.0 16.0 0.00 0.00 0.00 48 1006.8
20260504171924 75 184 12.0 20.0 0.00 0.00 0.00 49 1006.8
20260504171425 75 261 9.0 16.0 0.00 0.00 0.00 48 1006.8
20260504170924 75 195 5.0 14.0 0.00 0.00 0.00 48 1006.8
20260504170422 75 176 9.0 13.0 0.00 0.00 0.00 50 1006.8
20260504160426 73 210 7.0 13.0 0.00 0.00 0.00 52 1007.5
20260504150922 71 165 5.0 20.0 0.00 0.00 0.00 51 1008.1
20260504150423 71 230 5.0 18.0 0.00 0.00 0.00 52 1008.1
20260504140926 68 184 5.0 15.0 0.00 0.00 0.00 53 1009.1
20260504140425 68 189 5.0 11.0 0.00 0.00 0.00 55 1009.1
20260504130425 64 242 8.0 14.0 0.00 0.00 0.00 58 1009.8